Weather History for Blythe, CA

Change the Weather History Date:

Tuesday, November 20, 2012

  Actual Average Record
Temperature  
Mean Temperature 64 °F -  
Max Temperature 79 °F 72 °F 86 °F (2006)
Min Temperature 48 °F 46 °F 28 °F (1994)
Degree Days  
Heating Degree Days 2    
Growing Degree Days 14 (Base 50)    
Moisture  
Dew Point 36 °F    
Average Humidity 41    
Maximum Humidity 59    
Minimum Humidity 22    
Precipitation  
Precipitation 0.00 in - - ()
Sea Level Pressure  
Sea Level Pressure 30.07 in    
Wind  
Wind Speed 3 mph (WNW)    
Max Wind Speed 6 mph    
Max Gust Speed -    
Visibility 10 miles    
Events      
Averages and records for this station are not official NWS values.
T = Trace of Precipitation, MM = Missing Value Source: NWS Daily Summary

Daily Weather History Graph

Daily Weather History Graph

Search for Another Location

Airport:

Trip Planner

Search our weather history database for the weather conditions in past years. The results will help you decide how hot, cold, wet, or windy it might be!

Date:

Astronomy

Nov. 20, 2012 Rise Set
Actual Time 6:15 AM PST 4:33 PM PST
Civil Twilight 5:49 AM PST 4:59 PM PST
Nautical Twilight 5:18 AM PST 5:30 PM PST
Astronomical Twilight 4:49 AM PST 5:59 PM PST
Moon 12:02 PM PST (11/20) 11:57 PM PST (11/20)
Length of Visible Light 11h 10m
Length of Day
10h 17m
First Quarter, 52% of the Moon is Illuminated
Nov 20
First Quarter
Nov 28
Full
Dec 6
Last Quarter
Dec 13
New
Dec 19
First Quarter

Hourly Weather History & Observations

Time (PST) Temp. Dew Point Humidity Pressure Visibility Wind Dir Wind Speed Gust Speed Precip Events Conditions
12:52 AM 54.0 °F 35.1 °F 49% 30.12 in 10.0 mi NNW 4.6 mph - N/A   Clear
1:52 AM 51.1 °F 34.0 °F 52% 30.13 in 10.0 mi Calm Calm - N/A   Clear
2:52 AM 48.9 °F 33.1 °F 54% 30.12 in 10.0 mi NNE 4.6 mph - N/A   Clear
3:52 AM 48.9 °F 34.0 °F 56% 30.11 in 10.0 mi NW 3.5 mph - N/A   Clear
4:52 AM 51.1 °F 35.1 °F 54% 30.12 in 10.0 mi West 3.5 mph - N/A   Clear
5:52 AM 50.0 °F 36.0 °F 59% 30.13 in 10.0 mi SW 5.8 mph - N/A   Clear
6:52 AM 52.0 °F 37.0 °F 57% 30.14 in 10.0 mi Calm Calm - N/A   Clear
7:52 AM 54.0 °F 36.0 °F 51% 30.15 in 10.0 mi Calm Calm - N/A   Clear
8:52 AM 60.1 °F 37.9 °F 44% 30.14 in 10.0 mi NW 3.5 mph - N/A   Clear
9:52 AM 64.9 °F 39.0 °F 39% 30.14 in 10.0 mi South 3.5 mph - N/A   Clear
10:52 AM 69.1 °F 41.0 °F 36% 30.11 in 10.0 mi Calm Calm - N/A   Clear
11:52 AM 73.0 °F 39.0 °F 29% 30.06 in 10.0 mi Calm Calm - N/A   Clear
12:52 PM 75.0 °F 37.9 °F 26% 30.03 in 10.0 mi Calm Calm - N/A   Clear
1:52 PM 78.1 °F 37.9 °F 24% 30.00 in 10.0 mi Calm Calm - N/A   Clear
3:52 PM 79.0 °F 37.0 °F 22% 29.99 in 10.0 mi Calm Calm - N/A   Clear
4:52 PM 73.0 °F 39.9 °F 30% 29.98 in 10.0 mi SSW 3.5 mph - N/A   Clear
5:52 PM 70.0 °F 39.9 °F 33% 29.99 in 10.0 mi Calm Calm - N/A   Clear
6:52 PM 66.0 °F 39.0 °F 37% 30.00 in 10.0 mi Calm Calm - N/A   Clear
7:52 PM 61.0 °F 34.0 °F 36% 30.01 in 10.0 mi WNW 4.6 mph - N/A   Clear
8:52 PM 59.0 °F 32.0 °F 36% 30.01 in 10.0 mi NNW 5.8 mph - N/A   Clear
9:52 PM 57.9 °F 32.0 °F 37% 30.01 in 10.0 mi Calm Calm - N/A   Clear
10:52 PM 57.0 °F 33.1 °F 40% 30.01 in 10.0 mi Calm Calm - N/A   Clear
11:52 PM 55.0 °F 32.0 °F 42% 30.00 in 10.0 mi NNW 4.6 mph - N/A   Clear